World > North America > United States > Wisconsin > Appleton   City of Appleton, WI

Appleton, WI Hourly Weather Updates

Feedback E-mail the Weather

Quick Clicks

Appleton, WI Weather Maps

°F °C°F °C
Appleton Weather Map
UTC Time: 4/18/2024, 04:31
Your Time:

Appleton, WI Regional Weather

Expires:202404180500;;935418
ASUS43 KMKX 180420
RWRWI 

WISCONSIN REGIONAL WEATHER ROUNDUP
NATIONAL WEATHER SERVICE MILWAUKEE/SULLIVAN WI
1100 PM CDT WED APR 17 2024

NOTE: "FAIR" INDICATES FEW OR NO CLOUDS BELOW 12,000 FEET WITH NO
SIGNIFICANT WEATHER AND/OR OBSTRUCTIONS TO VISIBILITY.


WIZ011>013-019>022-031-037>040-048>050-180500-
NORTHEAST WISCONSIN
  
CITY           SKY/WX    TMP DP  RH WIND       PRES   REMARKS
ANTIGO         CLOUDY    41  40  97 NW13G20   29.85R TC   5           
SHAWANO        CLOUDY    48  41  77 W8        29.86R TC   9           
OCONTO         CLOUDY    46  42  84 W7        29.83R TC   8           
STURGEON BAY   CLOUDY    47  42  83 NW16G24   29.82R TC   8           
GREEN BAY      PTCLDY    48  40  73 W18G26    29.85R TC   9           
MANITOWOC      CLOUDY    49  41  74 W14       29.86R TC   9           
APPLETON       CLOUDY    48  43  81 W20G25    29.88R TC   9           
CLINTONVILLE   CLOUDY    47  41  81 W10       29.89R TC   8           
OSHKOSH        CLOUDY    50  42  74 W16G26    29.88R TC  10           
$$
 

SKY/WX - Weather  TMP - Temperature  DP - Dew Point  RH - Humidity
WIND - Wind Direction/Speed PRES - Barometric Pressure VSB - Visibility
WCI - Wind Chill Index E13G22 Wind - East Wind 13 mph/Gusts of 22 mph

Trending Headlines

Trending Entertainment Headlines

Appleton Radar Loop

Use the map search tool if you want to place a location marker on the radar map...

Appleton Quick Facts

National Two Day Weather Forecast


E-mail the Appleton Weather Forecast

Voice your opinion or tell us about page issues...